Weather History for Alexandria, LA

Change the Weather History Date:

Friday, September 30, 2011

  Actual Average Record
Temperature  
Mean Temperature 69 °F 72 °F  
Max Temperature 84 °F 84 °F 96 °F (1953)
Min Temperature 53 °F 61 °F 42 °F (1909)
Degree Days  
Heating Degree Days 0 1  
Month to date heating degree days 0 1  
Since 1 July heating degree days 0 3  
Cooling Degree Days 4 8  
Month to date cooling degree days 334 363  
Year to date cooling degree days 2877 2350  
Growing Degree Days 22 (Base 50)    
Moisture  
Dew Point 47 °F    
Average Humidity 57    
Maximum Humidity 97    
Minimum Humidity 17    
Precipitation  
Precipitation 0.00 in 0.16 in 2.51 in (1898)
Month to date precipitation 5.62 2.90  
Year to date precipitation 25.90 39.13  
Sea Level Pressure  
Sea Level Pressure 30.01 in    
Wind  
Wind Speed 7 mph (NNE)    
Max Wind Speed 22 mph    
Max Gust Speed 28 mph    
Visibility 10 miles    
Events      
T = Trace of Precipitation, MM = Missing Value Source: NWS Daily Summary

Daily Weather History Graph

Daily Weather History Graph

Search for Another Location

Airport:

Trip Planner

Search our weather history database for the weather conditions in past years. The results will help you decide how hot, cold, wet, or windy it might be!

Date:

Astronomy

Sep. 30, 2011 Rise Set
Actual Time 7:03 AM CDT 6:56 PM CDT
Civil Twilight 6:38 AM CDT 7:21 PM CDT
Nautical Twilight 6:10 AM CDT 7:49 PM CDT
Astronomical Twilight 5:42 AM CDT 8:17 PM CDT
Moon 10:42 AM CDT (9/30) 9:19 PM CDT (9/30)
Length of Visible Light 12h 42m
Length of Day
11h 53m
Waxing Crescent, 15% of the Moon is Illuminated
Sep 30
Waxing Crescent
Oct 3
First Quarter
Oct 11
Full
Oct 19
Last Quarter
Oct 26
New

Hourly Weather History & Observations

Time (CDT) Temp. Dew Point Humidity Pressure Visibility Wind Dir Wind Speed Gust Speed Precip Events Conditions
12:53 AM 73.0 °F 69.1 °F 87% 29.92 in 10.0 mi NW 3.5 mph - N/A   Clear
1:53 AM 72.0 °F 69.1 °F 91% 29.92 in 10.0 mi Calm Calm - N/A   Clear
2:53 AM 70.0 °F 68.0 °F 93% 29.91 in 8.0 mi Calm Calm - N/A   Clear
3:53 AM 68.0 °F 66.9 °F 96% 29.93 in 9.0 mi WNW 3.5 mph - N/A   Clear
4:53 AM 69.1 °F 64.9 °F 87% 29.93 in 10.0 mi Calm Calm - N/A   Scattered Clouds
5:53 AM 71.1 °F 64.9 °F 81% 29.96 in 10.0 mi North 5.8 mph - N/A   Clear
6:53 AM 71.1 °F 54.0 °F 55% 29.99 in 10.0 mi NNE 10.4 mph 19.6 mph N/A   Clear
7:53 AM 71.1 °F 42.1 °F 35% 30.03 in 10.0 mi NE 11.5 mph - N/A   Clear
8:53 AM 73.0 °F 39.9 °F 30% 30.05 in 10.0 mi NNE 11.5 mph 23.0 mph N/A   Clear
9:53 AM 75.0 °F 39.9 °F 28% 30.08 in 10.0 mi NE 16.1 mph 25.3 mph N/A   Clear
10:53 AM 75.9 °F 39.0 °F 26% 30.09 in 10.0 mi NE 16.1 mph 26.5 mph N/A   Clear
11:53 AM 78.1 °F 39.0 °F 25% 30.08 in 10.0 mi NNE 15.0 mph 23.0 mph N/A   Clear
12:53 PM 80.6 °F 39.2 °F 23% 30.05 in 10.0 mi North 12.7 mph - N/A   Clear
1:53 PM 82.0 °F 39.0 °F 22% 30.04 in 10.0 mi NNE 9.2 mph - N/A   Clear
2:53 PM 82.9 °F 35.1 °F 18% 30.01 in 10.0 mi North 12.7 mph 18.4 mph N/A   Clear
3:53 PM 82.9 °F 34.0 °F 17% 30.01 in 10.0 mi NNE 13.8 mph - N/A   Clear
4:53 PM 82.9 °F 34.0 °F 17% 30.01 in 10.0 mi NE 11.5 mph 17.3 mph N/A   Clear
5:53 PM 79.0 °F 36.0 °F 21% 30.00 in 10.0 mi NE 8.1 mph - N/A   Clear
6:53 PM 73.0 °F 41.0 °F 31% 30.01 in 10.0 mi ENE 4.6 mph - N/A   Clear
7:53 PM 66.0 °F 46.0 °F 48% 30.03 in 10.0 mi NNE 3.5 mph - N/A   Clear
8:53 PM 68.0 °F 39.9 °F 36% 30.05 in 10.0 mi NE 4.6 mph - N/A   Clear
9:53 PM 64.9 °F 39.9 °F 40% 30.07 in 10.0 mi NE 4.6 mph - N/A   Clear
10:53 PM 63.0 °F 41.0 °F 45% 30.09 in 10.0 mi Calm Calm - N/A   Clear
11:53 PM 57.9 °F 43.0 °F 58% 30.08 in 10.0 mi Calm Calm - N/A   Clear